DW7355 Weather Reports


time (UTC)temp
F
wind
direction
speed
knots
gust
knots
rain 1hr
in
rain 24hr
in
rain mn
in
humidity
%
barometer
mb
20260507200053 65 301 3.5 8.7 0.00 0.10 0.04 28 1004.8
20260507194547 65 288 1.7 6.1 0.00 0.13 0.04 29 1005.1
20260507193053 65 295 0.9 8.7 0.00 0.13 0.04 29 1005.1
20260507191544 64 75 2.6 6.1 0.00 0.13 0.04 27 1005.2
20260507190044 64 29 2.6 7.8 0.00 0.13 0.04 28 1005.2
20260507184543 65 203 1.7 5.2 0.00 0.13 0.04 31 1005.4
20260507183044 65 30 1.7 6.1 0.00 0.13 0.04 29 1005.5
20260507181537 65 308 2.6 9.6 0.00 0.13 0.04 32 1005.6
20260507180040 63 354 3.5 9.6 0.00 0.13 0.04 33 1005.9
20260507174536 63 270 1.7 7.8 0.00 0.13 0.04 34 1005.9
20260507173037 64 356 0.0 10.4 0.00 0.13 0.04 36 1005.9
20260507171533 63 205 2.6 8.7 0.00 0.13 0.04 36 1005.9
20260507170030 63 245 2.6 10.4 0.00 0.13 0.04 40 1006.1
20260507164531 63 277 1.7 7.0 0.00 0.13 0.04 44 1006.2
20260507163025 61 226 1.7 6.1 0.00 0.13 0.04 47 1006.4
20260507161538 61 283 3.5 8.7 0.00 0.13 0.04 49 1006.5
20260507160033 62 23 2.6 6.1 0.00 0.13 0.04 49 1006.6
20260507154523 61 295 0.9 7.0 0.00 0.13 0.04 54 1006.8
20260507153019 60 304 0.0 4.3 0.00 0.13 0.04 55 1006.9
20260507151534 59 283 0.9 5.2 0.00 0.13 0.04 57 1007.0
20260507150017 59 63 0.9 2.6 0.00 0.13 0.04 57 1007.1
20260507144516 59 294 1.7 5.2 0.00 0.13 0.04 56 1007.3
20260507143015 59 283 3.5 7.0 0.00 0.13 0.04 57 1007.5
20260507141515 59 44 0.9 4.3 0.00 0.13 0.04 60 1007.5
20260507140017 58 226 0.9 4.3 0.00 0.13 0.04 63 1007.6
20260507134526 57 267 1.7 6.1 0.00 0.13 0.04 67 1007.6
20260507133010 53 253 2.6 4.3 0.00 0.13 0.04 94 1007.7
20260507131517 52 270 0.9 6.1 0.00 0.13 0.04 95 1007.7
20260507130006 51 253 0.9 4.3 0.00 0.13 0.04 96 1007.8
20260507124506 51 76 0.9 7.0 0.00 0.13 0.04 97 1008.0
20260507123016 50 280 1.7 4.3 0.00 0.13 0.04 97 1008.0
20260507121506 49 264 0.9 4.3 0.00 0.13 0.04 97 1007.9
20260507120005 49 276 0.0 2.6 0.00 0.13 0.04 97 1007.7
20260507114503 49 263 0.0 1.7 0.00 0.13 0.04 97 1007.9
20260507113002 48 263 0.0 2.6 0.00 0.13 0.04 97 1007.7
20260507111506 48 295 0.0 1.7 0.00 0.13 0.04 97 1007.7
20260507110001 48 295 0.0 1.7 0.00 0.13 0.04 97 1007.5
20260507104557 0 0.0 0.0 0.00 0.13 0.04 1007.6
20260507103056 0 0.0 0.0 0.00 0.13 0.04 1008.0
20260507101549 0 0.0 0.0 0.00 0.13 0.04 1007.2
20260507100044 0 0.0 0.0 0.00 0.13 0.04 1007.2
20260507094540 0 0.0 0.0 0.01 0.13 0.04 1007.0
20260507093035 0 0.0 0.0 0.01 0.13 0.04 1007.1
20260507091535 0 0.0 0.0 0.02 0.13 0.04 1006.8
20260507090036 0 0.0 0.0 0.03 0.13 0.04 1007.3
20260507084533 50 253 0.0 5.2 0.02 0.12 0.03 94 1007.3
20260507083020 50 272 0.9 4.3 0.03 0.12 0.03 93 1006.8
20260507081519 51 270 0.9 4.3 0.02 0.11 0.02 92 1006.6
20260507080014 52 276 0.0 5.2 0.01 0.10 0.01 90 1007.1
20260507074523 54 264 0.0 5.2 0.01 0.10 0.01 87 1006.4
20260507073008 55 288 0.0 5.2 0.00 0.09 0.00 85 1006.5
20260507071505 55 302 0.9 3.5 0.00 0.09 0.00 85 1005.8
20260507070010 55 245 0.0 2.6 0.00 0.09 0.00 86 1005.9
20260507064504 56 312 1.7 3.5 0.00 0.09 0.00 85 1006.1
20260507063100 56 287 1.7 3.5 0.00 0.09 0.00 85 1006.1
20260507061559 57 301 0.0 2.6 0.00 0.09 0.00 86 1005.9
20260507060106 57 282 1.7 5.2 0.00 0.09 0.00 86 1006.1
20260507054558 58 276 0.0 6.1 0.00 0.09 0.00 86 1006.2
20260507053055 58 329 0.9 6.1 0.00 0.09 0.00 87 1006.3
20260507051552 58 272 0.9 3.5 0.00 0.09 0.00 87 1006.0
20260507050049 59 250 2.6 7.0 0.00 0.09 0.00 88 1006.1
20260507044547 59 256 0.0 3.5 0.00 0.09 0.00 90 1005.9
20260507043043 60 305 0.9 6.1 0.00 0.09 0.00 92 1005.8
20260507041539 60 266 0.0 3.5 0.00 0.09 0.00 93 1005.9
20260507040035 59 285 0.0 2.6 0.00 0.09 0.00 93 1006.2
20260507034550 59 253 1.7 4.3 0.00 0.09 0.09 93 1006.0
20260507033038 60 295 0.0 4.3 0.00 0.09 0.09 93 1005.9
20260507031532 60 221 1.7 3.5 0.00 0.09 0.09 92 1005.7
20260507030035 59 263 1.7 4.3 0.00 0.09 0.09 92 1005.5
20260507024548 59 287 0.9 7.0 0.00 0.09 0.09 93 1005.5
20260507023030 59 239 0.0 4.3 0.00 0.09 0.09 93 1005.7
20260507021529 59 197 0.9 4.3 0.00 0.09 0.09 93 1005.6
20260507020029 59 228 0.9 4.3 0.00 0.09 0.09 93 1005.6
20260507014538 59 226 0.9 5.2 0.00 0.09 0.09 93 1005.6
20260507013028 58 155 0.9 9.6 0.00 0.09 0.09 93 1005.8
20260507011538 58 124 1.7 6.1 0.00 0.09 0.09 93 1006.0
20260507010027 58 269 1.7 5.2 0.00 0.09 0.09 93 1006.1
20260507004526 58 288 0.9 6.1 0.00 0.09 0.09 93 1006.1
20260507003025 58 211 1.7 8.7 0.01 0.09 0.09 93 1006.0
20260507001527 58 214 0.9 9.6 0.02 0.09 0.09 93 1005.9
20260507000024 58 242 0.9 7.0 0.03 0.09 0.09 93 1005.6
20260506234522 58 214 1.7 7.0 0.02 0.08 0.08 93 1005.8
20260506233021 59 225 0.9 7.0 0.02 0.08 0.08 93 1005.7
20260506231521 59 256 2.6 8.7 0.01 0.07 0.07 92 1005.7
20260506230017 59 179 0.9 7.0 0.00 0.06 0.06 92 1005.7
20260506224516 60 255 0.9 5.2 0.01 0.06 0.06 92 1005.7
20260506223012 60 170 1.7 6.1 0.02 0.06 0.06 92 1005.9
20260506221511 60 132 0.9 9.6 0.02 0.06 0.06 92 1006.1
20260506220010 61 160 0.9 5.2 0.02 0.06 0.06 91 1006.1
20260506214515 61 189 3.5 9.6 0.02 0.05 0.05 89 1006.4
20260506213009 62 255 3.5 12.2 0.01 0.04 0.04 87 1006.5
20260506211505 62 232 2.6 7.8 0.01 0.04 0.04 86 1006.5
20260506210004 62 307 1.7 10.4 0.01 0.04 0.04 86 1006.5
20260506204504 62 194 2.6 12.2 0.01 0.03 0.03 85 1006.7
20260506203008 62 214 1.7 10.4 0.02 0.03 0.03 83 1006.7
20260506201502 63 149 3.5 11.3 0.03 0.03 0.03 82 1006.6